,

(GMT )
St. Stephen

Weather History for CWSS - February, 2014

Change the Weather History Date:

Sunday, February 16, 2014

  Actual Average Record
Temperature  
Mean Temperature 18 °F -  
Max Temperature 24 °F - - ()
Min Temperature 12 °F - - ()
Degree Days  
Heating Degree Days 46    
Moisture  
Dew Point 15 °F    
Average Humidity 83    
Maximum Humidity 100    
Minimum Humidity 58    
Precipitation  
Precipitation 0.20 in - - ()
Sea Level Pressure  
Sea Level Pressure 29.44 in    
Wind  
Wind Speed 12 mph ()    
Max Wind Speed 18 mph    
Max Gust Speed 32 mph    
T = Trace of Precipitation, MM = Missing Value Source: Averaged Metar Reports

Daily Weather History Graph

Daily Weather History Graph

Search for Another Location

Airport or City:

Trip Planner

Search our weather history database for the weather conditions in past years. The results will help you decide how hot, cold, wet, or windy it might be!

Date:

Astronomy

Feb. 16, 2014 Rise Set
Actual Time 7:28 AM AST 5:58 PM AST
Civil Twilight 6:58 AM AST 6:28 PM AST
Nautical Twilight 6:24 AM AST 7:02 PM AST
Astronomical Twilight 5:50 AM AST 7:36 PM AST
Moon 7:58 PM AST (2/16) 7:50 AM AST (2/16)
Length of Visible Light 11h 29m
Length of Day
10h 29m
Full, 97% of the Moon is Illuminated
Feb 16
Full
Feb 22
Last Quarter
Mar 1
New
Mar 8
First Quarter
Mar 16
Full

Hourly Weather History & Observations

Time (AST) Temp. Windchill Dew Point Humidity Pressure Visibility Wind Dir Wind Speed Gust Speed Precip Events Conditions
12:00 AM 21.7 °F 10.8 °F 21.7 °F 100% 29.52 in - NNE 10.4 mph 19.6 mph 0.08 in   Unknown
1:00 AM 20.5 °F 8.6 °F 20.5 °F 100% 29.48 in - NNE 11.5 mph 19.6 mph 0.13 in   Unknown
2:00 AM 20 °F - 20 °F 100% 29.36 in - North 17.3 mph - -  
2:00 AM 19.9 °F 5.2 °F 19.9 °F 100% 29.36 in - North 17.3 mph 28.8 mph 0.09 in   Unknown
3:00 AM 19.4 °F 4.1 °F 19.4 °F 100% 29.28 in - North 18.4 mph 32.2 mph 0.05 in   Unknown
4:00 AM 19.0 °F 6.1 °F 18.9 °F 99% 29.26 in - North 12.7 mph 24.2 mph 0.06 in   Unknown
5:00 AM 18 °F - 17 °F 95% 29.24 in - NNW 16.1 mph - -  
5:00 AM 17.6 °F 2.7 °F 17.2 °F 98% 29.24 in - NNW 16.1 mph 26.5 mph 0.04 in   Unknown
6:00 AM 16.5 °F 2.4 °F 16.3 °F 99% 29.23 in - NNW 13.8 mph 26.5 mph 0.03 in   Unknown
7:00 AM 16.3 °F 2.7 °F 16.2 °F 99% 29.22 in - NNW 12.7 mph 23.0 mph 0.02 in   Unknown
8:00 AM 16 °F - 16 °F 99% 29.25 in - NW 11.5 mph - -  
8:00 AM 16.2 °F 3.2 °F 15.8 °F 98% 29.25 in - NW 11.5 mph 20.7 mph 0.01 in   Unknown
9:00 AM 16.3 °F 2.1 °F 15.6 °F 97% 29.28 in - NW 13.8 mph 25.3 mph N/A   Unknown
10:00 AM 17.1 °F 2.5 °F 16.0 °F 96% 29.32 in - WNW 15.0 mph 24.2 mph N/A   Unknown
11:00 AM 18 °F - 17 °F 95% 29.36 in - WNW 12.7 mph - -  
11:00 AM 20.3 °F 7.7 °F 17.2 °F 88% 29.36 in - WNW 12.7 mph 23.0 mph 0.01 in   Unknown
12:00 PM 20.8 °F 6.8 °F 18.1 °F 89% 29.39 in - WNW 16.1 mph 25.3 mph N/A   Unknown
1:00 PM 23.0 °F 11.1 °F 14.7 °F 71% 29.40 in - West 12.7 mph 20.7 mph N/A   Unknown
2:00 PM 23 °F - 15 °F 59% 29.44 in - WNW 16.1 mph - -  
2:00 PM 22.8 °F 9.4 °F 14.5 °F 71% 29.44 in - WNW 16.1 mph 24.2 mph N/A   Unknown
3:00 PM 24.3 °F 12.2 °F 12.9 °F 62% 29.47 in - WNW 13.8 mph 25.3 mph N/A   Unknown
4:00 PM 22.8 °F 10.4 °F 12.9 °F 66% 29.50 in - WNW 13.8 mph 23.0 mph N/A   Unknown
5:00 PM 23 °F - 14 °F 58% 29.52 in - West 11.5 mph - -  
5:00 PM 23.4 °F 12.2 °F 14.4 °F 68% 29.52 in - West 11.5 mph 20.7 mph N/A   Unknown
6:00 PM 22.1 °F 12.0 °F 12.4 °F 66% 29.57 in - West 9.2 mph 17.3 mph N/A   Unknown
7:00 PM 18.1 °F 7.9 °F 11.3 °F 75% 29.62 in - West 8.1 mph - N/A   Unknown
8:00 PM 17 °F - 9 °F 58% 29.66 in - West 9.2 mph - -  
8:00 PM 17.1 °F 5.8 °F 8.6 °F 69% 29.66 in - West 9.2 mph - N/A   Unknown
9:00 PM 15.3 °F 4.4 °F 7.9 °F 73% 29.69 in - WSW 8.1 mph - N/A   Unknown
10:00 PM 14.4 °F 1.6 °F 7.2 °F 73% 29.70 in - WSW 10.4 mph - N/A   Unknown
11:00 PM 13 °F - 6 °F 64% 29.72 in - WSW 6.9 mph - -  
11:00 PM 12.6 °F 2.2 °F 6.4 °F 77% 29.72 in - WSW 6.9 mph - N/A   Unknown